{"data":{"norad_id":57499,"epoch":"2026-05-24T19:23:06.903456Z","epoch_age_seconds":94854,"freshness":"FRESH","line1":"1 57499U 23113E   26144.80771879  .00000462  00000+0  26332-4 0  9999","line2":"2 57499  43.0047 292.0139 0001996 263.0680  96.9944 15.27570923155328","mean_motion":15.27570923,"eccentricity":0.0001996,"inclination_deg":43.0047,"raan_deg":292.0139,"arg_perigee_deg":263.068,"mean_anomaly_deg":96.9944,"bstar":2.6332e-5,"rev_number":15532,"period_min":94.267308857384,"perigee_km":481.70677780779,"apogee_km":484.44577414756,"semimajor_km":6861.2132759777,"source":"CELESTRAK","updated_at":"2026-05-25T13:38:18.327706Z"}}